When you browse on this site, cookies collect data to enhance your experience and personalize the content and advertising you see.
Visit our Privacy Policy to learn more. By continuing to use the site, you agree to this use of cookies and data.
  • En España
  • Lista de países
  • Para 7 días
  • Temperatura del agua
  • Mapa Satelital
  • El tiempo en el mapa
  • Informadores
  • user-avatar
    Iniciar sesión

    Tiempo cada hora Zagreb

    Hoy, 18 Junio, Martes

    Tiempo Temperatura Precipitaciones Viento Presión Humedad
    00:00 +20°C° 0 mm 1 mps 752 mmHg 89%
    01:00 +20°C° 0 mm 1 mps 752 mmHg 90%
    02:00 +20°C° 0 mm 1 mps 752 mmHg 91%
    03:00 +19°C° 0 mm 1 mps 752 mmHg 91%
    04:00 +19°C° 0 mm 1 mps 751 mmHg 92%
    05:00 +20°C° 0 mm 1 mps 752 mmHg 90%
    06:00 +21°C° 0 mm 1 mps 752 mmHg 88%
    07:00 +22°C° 0 mm 1 mps 752 mmHg 87%
    08:00 +24°C° 0.1 mm 1 mps 752 mmHg 78%
    09:00 +26°C° 0.1 mm 1 mps 752 mmHg 70%
    10:00 +28°C° 0.1 mm 1 mps 752 mmHg 62%
    11:00 +28°C° 0.6 mm 1 mps 752 mmHg 63%
    12:00 +28°C° 0.6 mm 1 mps 752 mmHg 64%
    13:00 +28°C° 0.6 mm 1 mps 751 mmHg 65%
    14:00 +28°C° 0.6 mm 1 mps 751 mmHg 65%
    15:00 +28°C° 0.6 mm 1 mps 751 mmHg 64%
    16:00 +28°C° 0.6 mm 1 mps 750 mmHg 64%
    17:00 +27°C° 0.1 mm 1 mps 750 mmHg 68%
    18:00 +26°C° 0.1 mm 1 mps 750 mmHg 73%
    19:00 +25°C° 0.1 mm 1 mps 750 mmHg 77%
    20:00 +22°C° 0.1 mm 0 mps 750 mmHg 80%
    21:00 +21°C° 0.1 mm 0 mps 750 mmHg 83%
    22:00 +20°C° 0.1 mm 0 mps 750 mmHg 86%
    23:00 +20°C° 0.3 mm 0 mps 750 mmHg 87%

    Mañana, 19 Junio, Miércoles

    Tiempo Temperatura Precipitaciones Viento Presión Humedad
    00:00 +19°C° 0.3 mm 0 mps 750 mmHg 89%
    01:00 +19°C° 0.3 mm 0 mps 750 mmHg 90%
    02:00 +19°C° 0.1 mm 0 mps 750 mmHg 91%
    03:00 +18°C° 0.1 mm 0 mps 749 mmHg 91%
    04:00 +18°C° 0.1 mm 0 mps 749 mmHg 92%
    05:00 +19°C° 0 mm 0 mps 749 mmHg 89%
    06:00 +21°C° 0 mm 0 mps 750 mmHg 86%
    07:00 +22°C° 0 mm 0 mps 750 mmHg 83%
    08:00 +23°C° 0.5 mm 0 mps 750 mmHg 78%
    09:00 +25°C° 0.5 mm 0 mps 749 mmHg 74%
    10:00 +29°C° 0.5 mm 1 mps 749 mmHg 69%
    11:00 +30°C° 0.6 mm 1 mps 749 mmHg 61%
    12:00 +31°C° 0.6 mm 1 mps 749 mmHg 53%
    13:00 +33°C° 0.6 mm 1 mps 748 mmHg 44%
    14:00 +32°C° 0.1 mm 1 mps 748 mmHg 44%
    15:00 +32°C° 0.1 mm 1 mps 748 mmHg 43%
    16:00 +32°C° 0.1 mm 1 mps 747 mmHg 42%
    17:00 +31°C° 0 mm 1 mps 748 mmHg 50%
    18:00 +29°C° 0 mm 1 mps 748 mmHg 58%
    19:00 +28°C° 0 mm 1 mps 748 mmHg 66%
    20:00 +26°C° 0.1 mm 1 mps 748 mmHg 69%
    21:00 +25°C° 0.1 mm 1 mps 748 mmHg 71%
    22:00 +24°C° 0.1 mm 1 mps 748 mmHg 73%
    23:00 +23°C° 0 mm 1 mps 748 mmHg 76%

    Pasado mañana, 20 Junio, Jueves

    Tiempo Temperatura Precipitaciones Viento Presión Humedad
    00:00 +22°C° 0 mm 1 mps 748 mmHg 78%
    01:00 +21°C° 0 mm 1 mps 748 mmHg 81%
    02:00 +21°C° 0 mm 1 mps 748 mmHg 82%
    03:00 +20°C° 0 mm 1 mps 748 mmHg 84%
    04:00 +20°C° 0 mm 1 mps 748 mmHg 86%
    05:00 +21°C° 0 mm 1 mps 748 mmHg 81%
    06:00 +21°C° 0 mm 0 mps 748 mmHg 77%
    07:00 +22°C° 0 mm 0 mps 749 mmHg 72%
    08:00 +25°C° 0 mm 0 mps 749 mmHg 65%
    09:00 +29°C° 0 mm 1 mps 749 mmHg 58%
    10:00 +31°C° 0 mm 1 mps 749 mmHg 51%
    11:00 +32°C° 0 mm 1 mps 749 mmHg 47%
    12:00 +33°C° 0 mm 1 mps 748 mmHg 43%
    13:00 +34°C° 0 mm 1 mps 748 mmHg 38%
    14:00 +34°C° 0 mm 1 mps 748 mmHg 39%
    15:00 +34°C° 0 mm 2 mps 747 mmHg 40%
    16:00 +34°C° 0 mm 2 mps 747 mmHg 41%
    17:00 +31°C° 0 mm 2 mps 747 mmHg 49%
    18:00 +30°C° 0 mm 2 mps 747 mmHg 56%
    19:00 +28°C° 0 mm 2 mps 747 mmHg 63%
    20:00 +27°C° 0 mm 2 mps 747 mmHg 65%
    21:00 +25°C° 0 mm 2 mps 748 mmHg 68%
    22:00 +24°C° 0 mm 2 mps 748 mmHg 70%
    23:00 +23°C° 0 mm 2 mps 748 mmHg 71%

    21 Junio, Viernes

    Tiempo Temperatura Precipitaciones Viento Presión Humedad
    00:00 +21°C° 0 mm 2 mps 748 mmHg 72%
    01:00 +20°C° 0 mm 2 mps 748 mmHg 73%
    02:00 +20°C° 0 mm 2 mps 748 mmHg 73%
    03:00 +20°C° 0 mm 1 mps 748 mmHg 73%
    04:00 +20°C° 0 mm 1 mps 749 mmHg 74%
    05:00 +21°C° 0 mm 1 mps 749 mmHg 72%
    06:00 +23°C° 0 mm 1 mps 749 mmHg 70%
    07:00 +24°C° 0 mm 1 mps 750 mmHg 68%
    08:00 +26°C° 0 mm 1 mps 750 mmHg 63%
    09:00 +27°C° 0 mm 2 mps 750 mmHg 59%
    10:00 +29°C° 0 mm 2 mps 750 mmHg 54%
    11:00 +30°C° 0 mm 2 mps 750 mmHg 50%
    12:00 +31°C° 0 mm 1 mps 750 mmHg 45%
    13:00 +33°C° 0 mm 1 mps 750 mmHg 41%
    14:00 +32°C° 0 mm 1 mps 749 mmHg 41%
    15:00 +32°C° 0 mm 1 mps 749 mmHg 41%
    16:00 +32°C° 0 mm 1 mps 749 mmHg 41%
    17:00 +30°C° 0 mm 1 mps 749 mmHg 51%
    18:00 +29°C° 0 mm 1 mps 749 mmHg 60%
    19:00 +27°C° 0 mm 1 mps 750 mmHg 69%
    20:00 +25°C° 0.1 mm 1 mps 750 mmHg 74%
    21:00 +24°C° 0.1 mm 1 mps 750 mmHg 78%
    22:00 +23°C° 0.1 mm 2 mps 751 mmHg 82%
    23:00 +22°C° 0.3 mm 1 mps 751 mmHg 84%

    22 Junio, Sábado

    Tiempo Temperatura Precipitaciones Viento Presión Humedad
    00:00 +22°C° 0.3 mm 1 mps 751 mmHg 86%
    01:00 +21°C° 0.3 mm 1 mps 751 mmHg 88%
    02:00 +21°C° 0 mm 1 mps 751 mmHg 89%
    03:00 +20°C° 0 mm 1 mps 751 mmHg 90%
    04:00 +20°C° 0 mm 1 mps 751 mmHg 91%
    05:00 +21°C° 0.1 mm 1 mps 751 mmHg 88%
    06:00 +22°C° 0.1 mm 1 mps 752 mmHg 86%
    07:00 +23°C° 0.1 mm 2 mps 752 mmHg 83%
    08:00 +24°C° 0 mm 2 mps 752 mmHg 76%
    09:00 +26°C° 0 mm 2 mps 752 mmHg 69%
    10:00 +27°C° 0 mm 2 mps 752 mmHg 62%
    11:00 +28°C° 0 mm 2 mps 752 mmHg 58%
    12:00 +30°C° 0 mm 2 mps 752 mmHg 54%
    13:00 +31°C° 0 mm 1 mps 751 mmHg 50%
    14:00 +31°C° 0.1 mm 1 mps 751 mmHg 51%
    15:00 +31°C° 0.1 mm 1 mps 751 mmHg 53%
    16:00 +31°C° 0.1 mm 1 mps 751 mmHg 54%
    17:00 +29°C° 0.4 mm 1 mps 751 mmHg 64%
    18:00 +27°C° 0.4 mm 1 mps 751 mmHg 73%
    19:00 +26°C° 0.4 mm 1 mps 751 mmHg 83%
    20:00 +25°C° 0.1 mm 1 mps 751 mmHg 85%
    21:00 +24°C° 0.1 mm 1 mps 751 mmHg 87%
    22:00 +23°C° 0.1 mm 1 mps 751 mmHg 89%
    23:00 +22°C° 0.1 mm 1 mps 751 mmHg 89%

    23 Junio, Domingo

    Tiempo Temperatura Precipitaciones Viento Presión Humedad
    00:00 +22°C° 0.1 mm 1 mps 751 mmHg 90%
    01:00 +22°C° 0.1 mm 1 mps 751 mmHg 91%
    02:00 +21°C° 0.2 mm 1 mps 751 mmHg 91%
    03:00 +21°C° 0.2 mm 1 mps 751 mmHg 92%
    04:00 +18°C° 0.2 mm 0 mps 751 mmHg 92%
    05:00 +20°C° 0.1 mm 0 mps 751 mmHg 90%
    06:00 +21°C° 0.1 mm 0 mps 752 mmHg 87%
    07:00 +22°C° 0.1 mm 0 mps 752 mmHg 85%
    08:00 +24°C° 0 mm 0 mps 752 mmHg 77%
    09:00 +26°C° 0 mm 0 mps 752 mmHg 68%
    10:00 +28°C° 0 mm 0 mps 752 mmHg 60%
    11:00 +29°C° 0 mm 0 mps 752 mmHg 55%
    12:00 +31°C° 0 mm 0 mps 752 mmHg 50%
    13:00 +34°C° 0 mm 1 mps 752 mmHg 46%
    14:00 +33°C° 0.1 mm 1 mps 752 mmHg 47%
    15:00 +33°C° 0.1 mm 1 mps 752 mmHg 48%
    16:00 +32°C° 0.1 mm 1 mps 751 mmHg 50%
    17:00 +31°C° 0 mm 1 mps 751 mmHg 57%
    18:00 +30°C° 0 mm 1 mps 752 mmHg 63%
    19:00 +28°C° 0 mm 1 mps 752 mmHg 70%
    20:00 +27°C° 0.2 mm 1 mps 752 mmHg 74%
    21:00 +24°C° 0.2 mm 0 mps 753 mmHg 78%
    22:00 +23°C° 0.2 mm 0 mps 753 mmHg 82%
    23:00 +22°C° 0 mm 0 mps 753 mmHg 83%
    Mostrar más